Powrót do katalogu

ARIANE 2 DEB

LostGTO
NORAD 27028·DEBRIS·🇫🇷 France

Wystrzelony Jan 27, 1989 z Guiana Space Centre

Loading…

TLE

NieaktualneSource: Space-Track

Epoka: Feb 21, 2002, 19:12 UTC

1 27028U 89006H   02052.80067316 +.00002112 +00000-0 +17746-1 0  9994
2 27028 007.9744 276.9476 7172642 176.3260 196.7569 02.27297895003497

Śledź ARIANE 2 DEB w czasie rzeczywistym z AllMySat

Download on the App Store